Flag Weather past 2 weeks in Stonewall, Manitoba, Canada

Now
12 °F

Light snow. Overcast.


Feels Like: -6 °F
Forecast: 0 / 10 °F
Wind: 20 mph from North

Location: Winnipeg Int. Airportman.

Current Time: Nov 23, 2014 at 11:43:30 PM

Latest Report: Nov 23, 2014 at 11:00 PM


Visibility: 12 mi

Pressure: 29.71 "Hg

Humidity: 73%

Dew point: 5 °F

Location of StonewallLocation

Historic Weather in Stonewall — Graph

°F

Stonewall temperature yesterday

Maximum temperature yesterday: 34 °F (at 12:00 AM)
Minimum temperature yesterday: 25 °F (at 8:00 AM)
Average temperature yesterday: 28 °F

Past Weeks' High & Low Weather Summary

 TemperatureHumidityPressure
High36 °F (Nov 21, 10:00 PM)100% (Nov 23, 11:00 AM)30.56 "Hg (Nov 23, 11:00 AM)
Low-9 °F (Nov 20, 7:00 AM)53% (Nov 14, 2:00 PM)29.35 "Hg (Nov 23, 12:00 AM)
Average15 °F76%30.03 "Hg
* Reported Nov 8 10:00 PM — Nov 23 10:00 PM, Stonewall, Weather by CustomWeather, © 2014

Note: Actual official high and low records may vary slightly from our data, if they occured in-between our weather recording intervals... More about our weather records

Advertising

Stonewall weather history for previous 24 hours

 ConditionsComfort  
Time TempWeatherWind HumidityBarometerVisibility
10:00 PM
Nov 23
12 °FLight snow. Overcast.20 mph79%29.70 "Hg12 mi
9:00 PM14 °FLight snow. Overcast.26 mph73%29.68 "Hg12 mi
8:00 PM14 °FOvercast.25 mph79%29.65 "Hg10 mi
7:00 PM16 °FLight snow. Ice fog.24 mph79%29.65 "Hg6 mi
6:00 PM16 °FLight snow. Ice fog.22 mph79%29.62 "Hg6 mi
5:00 PM18 °FLight snow. Ice fog.18 mph86%29.59 "Hg3 mi
4:00 PM19 °FSnow flurries. Ice fog.22 mph86%29.57 "Hg1 mi
3:00 PM21 °FLight freezing rain. Ice fog.21 mph86%29.54 "Hg1 mi
2:00 PM23 °FLight freezing rain. Ice fog.18 mph93%29.50 "Hg1 mi
1:48 PM23 °FLight freezing rain. Ice fog.18 mph93%29.50 "Hg1 mi
1:00 PM25 °FLight freezing rain. Ice fog.21 mph93%29.48 "Hg1 mi
12:00 PM27 °FLight freezing rain. Ice fog.17 mph100%29.45 "Hg1 mi
11:54 AM27 °FLight freezing rain. Ice fog.20 mph100%29.45 "Hg1 mi
11:00 AM30 °FIce fog.12 mph100%29.43 "Hg1 mi
10:00 AM28 °FIce fog.8 mph93%29.42 "Hg3 mi
9:00 AM28 °FIce fog.8 mph93%29.40 "Hg5 mi
8:00 AM30 °FIce fog.3 mph93%29.39 "Hg5 mi
7:00 AM32 °FIce fog.7 mph93%29.38 "Hg5 mi
6:00 AM32 °FIce fog.12 mph93%29.37 "Hg5 mi
5:00 AM32 °FIce fog.14 mph93%29.36 "Hg5 mi
4:00 AM32 °FIce fog.17 mph93%29.36 "Hg6 mi
3:00 AM32 °FIce fog.17 mph93%29.35 "Hg6 mi
2:00 AM32 °FPassing clouds.16 mph87%29.36 "Hg15 mi
1:00 AM34 °FMostly cloudy.12 mph87%29.35 "Hg15 mi
12:00 AM34 °FPassing clouds.15 mph87%29.35 "Hg15 mi
11:00 PM
Nov 22
32 °FPassing clouds.6 mph87%29.39 "Hg15 mi
Weather by CustomWeather, © 2014

See weather overviewHow to use our weather pages